Orbital Elements at Epoch 2459200.5 (2020-Dec-17.0) TDB
Reference: JPL 31 (heliocentric ecliptic J2000)
Element | Value | Uncertainty (1-sigma) | Units |
e | .2013904121464323 | 3.2021e-08 | |
a | 2.377792025088444 | 7.3308e-09 | au |
q | 1.898927509157382 | 7.8353e-08 | au |
i | 4.470592340430384 | 3.8931e-06 | deg |
node | 225.1856443174978 | 4.422e-05 | deg |
peri | 212.0550380424013 | 4.5383e-05 | deg |
M | 335.3948565934297 | 1.0202e-05 | deg |
tp | 2459292.034038909431 (2021-Mar-18.53403891) | 3.8013e-05 | TDB |
period | 1339.242509702098 3.67 | 6.1934e-06 1.696e-08 | d yr |
n | .2688086716124913 | 1.2431e-09 | deg/d |
Q | 2.856656541019505 | 8.8072e-09 | au |
|
| | Orbit Determination Parameters
Additional Information
|